Time,TemperatureF,DewpointF,PressureIn,WindDirection,WindDirectionDegrees,WindSpeedMPH,WindSpeedGustMPH,Humidity,HourlyPrecipIn,Conditions,Clouds,dailyrainin,SolarRadiationWatts/m^2,SoftwareType,DateUTC
2013-02-04 00:00:00,39.3,33.1,30.03,NW,321,0.0,0.0,78,0.00,,,0.00,0.00,VWS V14.01,2013-02-04 05:00:00,
2013-02-04 00:02:00,39.3,33.1,30.03,NW,321,0.0,0.0,78,0.00,,,0.00,0.00,VWS V14.01,2013-02-04 05:02:00,
2013-02-04 00:03:00,39.3,33.4,30.03,NW,321,1.1,1.1,79,0.00,,,0.00,0.00,VWS V14.01,2013-02-04 05:03:00,
2013-02-04 00:08:00,39.8,33.6,30.03,NW,321,0.0,0.0,78,0.00,,,0.00,0.00,VWS V14.01,2013-02-04 05:08:00,
2013-02-04 00:13:00,39.8,33.6,30.03,NW,321,0.0,0.0,78,0.00,,,0.00,0.00,VWS V14.01,2013-02-04 05:13:00,
2013-02-04 00:18:00,39.8,33.8,30.03,NW,321,0.0,0.0,79,0.00,,,0.00,0.00,VWS V14.01,2013-02-04 05:18:00,
2013-02-04 00:23:00,39.5,33.8,30.03,NW,321,0.0,0.0,80,0.00,,,0.00,0.00,VWS V14.01,2013-02-04 05:23:00,
2013-02-04 00:28:00,39.0,33.3,30.03,NW,321,0.0,0.0,80,0.00,,,0.00,0.00,VWS V14.01,2013-02-04 05:28:00,
2013-02-04 00:33:00,38.5,33.2,30.03,NW,321,0.0,0.0,81,0.00,,,0.00,0.00,VWS V14.01,2013-02-04 05:33:00,
2013-02-04 00:38:00,38.8,33.4,30.03,NW,321,0.0,0.0,81,0.00,,,0.00,0.00,VWS V14.01,2013-02-04 05:38:00,
2013-02-04 00:43:00,38.5,33.2,30.03,NW,321,0.0,0.0,81,0.00,,,0.00,0.00,VWS V14.01,2013-02-04 05:43:00,
2013-02-04 00:48:00,38.3,33.3,30.03,NW,321,0.0,0.0,82,0.00,,,0.00,0.00,VWS V14.01,2013-02-04 05:48:00,
2013-02-04 00:53:00,38.2,33.2,30.03,NW,321,0.0,0.0,82,0.00,,,0.00,0.00,VWS V14.01,2013-02-04 05:53:00,
2013-02-04 00:58:00,38.0,33.0,30.03,NW,321,0.0,0.0,82,0.00,,,0.00,0.00,VWS V14.01,2013-02-04 05:58:00,
2013-02-04 01:03:00,37.7,33.0,30.03,NW,321,0.0,0.0,83,0.00,,,0.00,0.00,VWS V14.01,2013-02-04 06:03:00,
2013-02-04 01:08:00,37.8,33.5,30.03,NW,320,0.0,0.0,84,0.00,,,0.00,0.00,VWS V14.01,2013-02-04 06:08:00,
2013-02-04 01:13:00,38.0,33.3,30.03,NW,320,0.0,0.0,83,0.00,,,0.00,0.00,VWS V14.01,2013-02-04 06:13:00,
2013-02-04 01:18:00,38.0,33.3,30.03,NW,320,0.0,0.0,83,0.00,,,0.00,0.00,VWS V14.01,2013-02-04 06:18:00,
2013-02-04 01:23:00,38.0,33.3,30.04,NW,320,0.0,0.0,83,0.00,,,0.00,0.00,VWS V14.01,2013-02-04 06:23:00,
2013-02-04 01:28:00,38.0,33.6,30.04,NW,320,0.0,0.0,84,0.00,,,0.00,0.00,VWS V14.01,2013-02-04 06:28:00,
2013-02-04 01:33:00,37.8,33.5,30.04,NW,320,0.0,0.0,84,0.00,,,0.00,0.00,VWS V14.01,2013-02-04 06:33:00,
2013-02-04 01:38:00,37.5,33.2,30.04,NW,320,0.0,0.0,84,0.00,,,0.00,0.00,VWS V14.01,2013-02-04 06:38:00,
2013-02-04 01:43:00,37.2,33.2,30.04,NW,320,0.0,0.0,85,0.00,,,0.00,0.00,VWS V14.01,2013-02-04 06:43:00,
2013-02-04 01:48:00,37.0,32.9,30.03,NW,320,0.0,0.0,85,0.00,,,0.00,0.00,VWS V14.01,2013-02-04 06:48:00,
2013-02-04 01:53:00,36.8,33.0,30.04,NW,320,0.0,0.0,86,0.00,,,0.00,0.00,VWS V14.01,2013-02-04 06:53:00,
2013-02-04 01:58:00,36.7,32.9,30.03,NW,320,0.0,0.0,86,0.00,,,0.00,0.00,VWS V14.01,2013-02-04 06:58:00,
2013-02-04 02:03:00,36.5,32.8,30.03,NW,320,0.0,0.0,86,0.00,,,0.00,0.00,VWS V14.01,2013-02-04 07:03:00,
2013-02-04 02:08:00,36.7,32.9,30.03,NW,320,0.0,0.0,86,0.00,,,0.00,0.00,VWS V14.01,2013-02-04 07:08:00,
2013-02-04 02:13:00,36.5,32.8,30.04,NW,320,0.0,0.0,86,0.00,,,0.00,0.00,VWS V14.01,2013-02-04 07:13:00,
2013-02-04 02:18:00,36.8,33.0,30.04,NW,316,0.0,0.0,86,0.00,,,0.00,0.00,VWS V14.01,2013-02-04 07:18:00,
2013-02-04 02:23:00,37.0,33.2,30.04,NW,309,0.0,0.0,86,0.00,,,0.00,0.00,VWS V14.01,2013-02-04 07:23:00,
2013-02-04 02:28:00,36.8,33.1,30.04,NW,309,0.0,0.0,86,0.00,,,0.00,0.00,VWS V14.01,2013-02-04 07:28:00,
2013-02-04 02:33:00,36.5,32.8,30.04,NW,309,0.0,0.0,86,0.00,,,0.00,0.00,VWS V14.01,2013-02-04 07:33:00,
2013-02-04 02:38:00,36.0,32.3,30.04,NW,309,0.0,0.0,86,0.00,,,0.00,0.00,VWS V14.01,2013-02-04 07:38:00,
2013-02-04 02:42:00,36.0,32.8,30.04,NW,309,0.0,0.0,88,0.00,,,0.00,0.00,VWS V14.01,2013-02-04 07:42:00,
2013-02-04 02:47:00,36.2,32.7,30.05,NW,309,0.0,0.0,87,0.00,,,0.00,0.00,VWS V14.01,2013-02-04 07:47:00,
2013-02-04 02:52:00,36.2,33.0,30.05,NW,309,0.0,0.0,88,0.00,,,0.00,0.00,VWS V14.01,2013-02-04 07:52:00,
2013-02-04 02:57:00,35.8,32.3,30.04,NW,309,0.0,0.0,87,0.00,,,0.00,0.00,VWS V14.01,2013-02-04 07:57:00,
2013-02-04 03:02:00,35.3,32.2,30.04,NW,309,0.0,0.0,88,0.00,,,0.00,0.00,VWS V14.01,2013-02-04 08:02:00,
2013-02-04 03:07:00,35.0,31.9,30.04,NW,309,0.0,0.0,88,0.00,,,0.00,0.00,VWS V14.01,2013-02-04 08:07:00,
2013-02-04 03:12:00,34.8,31.9,30.04,NW,309,0.0,0.0,89,0.00,,,0.00,0.00,VWS V14.01,2013-02-04 08:12:00,
2013-02-04 03:17:00,34.8,31.9,30.04,NW,309,0.0,0.0,89,0.00,,,0.00,0.00,VWS V14.01,2013-02-04 08:17:00,
2013-02-04 03:22:00,34.8,31.9,30.04,NW,309,0.0,0.0,89,0.00,,,0.00,0.00,VWS V14.01,2013-02-04 08:22:00,
2013-02-04 03:27:00,34.8,32.2,30.04,NW,309,0.0,0.0,90,0.00,,,0.00,0.00,VWS V14.01,2013-02-04 08:27:00,
2013-02-04 03:32:00,34.8,31.9,30.04,NW,309,0.0,0.0,89,0.00,,,0.00,0.00,VWS V14.01,2013-02-04 08:32:00,
2013-02-04 03:37:00,34.7,31.8,30.04,NW,309,0.0,0.0,89,0.00,,,0.00,0.00,VWS V14.01,2013-02-04 08:37:00,
2013-02-04 03:42:00,34.5,31.6,30.04,NW,309,0.0,0.0,89,0.00,,,0.00,0.00,VWS V14.01,2013-02-04 08:42:00,
2013-02-04 03:47:00,34.2,31.4,30.04,NW,309,0.0,0.0,89,0.00,,,0.00,0.00,VWS V14.01,2013-02-04 08:47:00,
2013-02-04 03:52:00,33.8,31.0,30.04,NW,309,0.0,0.0,89,0.00,,,0.00,0.00,VWS V14.01,2013-02-04 08:52:00,
2013-02-04 03:57:00,33.5,30.9,30.04,NW,309,0.0,0.0,90,0.00,,,0.00,0.00,VWS V14.01,2013-02-04 08:57:00,
2013-02-04 04:02:00,33.2,30.6,30.04,NW,309,0.0,0.0,90,0.00,,,0.00,0.00,VWS V14.01,2013-02-04 09:02:00,
2013-02-04 04:07:00,33.0,30.3,30.04,NW,319,1.1,1.1,90,0.00,,,0.00,0.00,VWS V14.01,2013-02-04 09:07:00,
2013-02-04 04:12:00,32.8,30.1,30.04,NNW,342,0.0,0.0,90,0.00,,,0.00,0.00,VWS V14.01,2013-02-04 09:12:00,
2013-02-04 04:17:00,32.5,30.0,30.04,NNW,342,0.0,0.0,90,0.00,,,0.00,0.00,VWS V14.01,2013-02-04 09:17:00,
2013-02-04 04:22:00,32.5,30.1,30.04,NNW,342,0.0,0.0,91,0.00,,,0.00,0.00,VWS V14.01,2013-02-04 09:22:00,
2013-02-04 04:27:00,32.2,29.9,30.04,NNW,342,0.0,0.0,91,0.00,,,0.00,0.00,VWS V14.01,2013-02-04 09:27:00,
2013-02-04 04:32:00,32.2,29.8,30.04,NNW,342,0.0,0.0,91,0.00,,,0.00,0.00,VWS V14.01,2013-02-04 09:32:00,
2013-02-04 04:37:00,32.2,29.9,30.04,NNW,342,0.0,0.0,91,0.00,,,0.00,0.00,VWS V14.01,2013-02-04 09:37:00,
2013-02-04 04:42:00,32.2,29.9,30.03,NNW,342,0.0,0.0,91,0.00,,,0.00,0.00,VWS V14.01,2013-02-04 09:42:00,
2013-02-04 04:47:00,32.2,29.9,30.04,NNW,342,0.0,0.0,91,0.00,,,0.00,0.00,VWS V14.01,2013-02-04 09:47:00,
2013-02-04 04:52:00,32.3,30.0,30.04,NNW,342,0.0,0.0,91,0.00,,,0.00,0.00,VWS V14.01,2013-02-04 09:52:00,
2013-02-04 04:57:00,32.5,30.2,30.04,NNW,342,0.0,0.0,91,0.00,,,0.00,0.00,VWS V14.01,2013-02-04 09:57:00,
2013-02-04 05:02:00,32.7,30.3,30.04,NNW,342,0.0,0.0,91,0.00,,,0.00,0.00,VWS V14.01,2013-02-04 10:02:00,
2013-02-04 05:07:00,32.5,30.2,30.04,NNW,342,0.0,0.0,91,0.00,,,0.00,0.00,VWS V14.01,2013-02-04 10:07:00,
2013-02-04 05:12:00,32.3,30.0,30.05,NNW,342,0.0,0.0,91,0.00,,,0.00,0.00,VWS V14.01,2013-02-04 10:12:00,
2013-02-04 05:17:00,32.2,29.9,30.05,NNW,342,0.0,0.0,91,0.00,,,0.00,0.00,VWS V14.01,2013-02-04 10:17:00,
2013-02-04 05:22:00,32.2,29.9,30.05,NNW,342,0.0,0.0,91,0.00,,,0.00,0.00,VWS V14.01,2013-02-04 10:22:00,
2013-02-04 05:27:00,32.2,29.9,30.06,NNW,342,0.0,0.0,91,0.00,,,0.00,0.00,VWS V14.01,2013-02-04 10:27:00,
2013-02-04 05:32:00,32.2,29.8,30.06,NNW,342,0.0,0.0,91,0.00,,,0.00,0.00,VWS V14.01,2013-02-04 10:32:00,
2013-02-04 05:37:00,32.0,30.0,30.06,NNW,342,0.0,0.0,92,0.00,,,0.00,0.00,VWS V14.01,2013-02-04 10:37:00,
2013-02-04 05:42:00,32.2,30.1,30.06,NNW,342,0.0,0.0,92,0.00,,,0.00,0.00,VWS V14.01,2013-02-04 10:42:00,
2013-02-04 05:47:00,32.3,30.3,30.07,NNW,342,0.0,0.0,92,0.00,,,0.00,0.00,VWS V14.01,2013-02-04 10:47:00,
2013-02-04 05:52:00,32.2,30.2,30.07,NNW,342,0.0,0.0,92,0.00,,,0.00,0.00,VWS V14.01,2013-02-04 10:52:00,
2013-02-04 05:57:00,32.0,30.0,30.07,NNW,342,0.0,0.0,92,0.00,,,0.00,0.00,VWS V14.01,2013-02-04 10:57:00,
2013-02-04 06:02:00,31.8,29.4,30.08,NNW,342,0.0,0.0,91,0.00,,,0.00,0.00,VWS V14.01,2013-02-04 11:02:00,
2013-02-04 06:07:00,31.5,29.5,30.08,NNW,342,0.0,0.0,92,0.00,,,0.00,0.00,VWS V14.01,2013-02-04 11:07:00,
2013-02-04 06:12:00,31.5,29.5,30.08,NNW,342,0.0,0.0,92,0.00,,,0.00,0.00,VWS V14.01,2013-02-04 11:12:00,
2013-02-04 06:17:00,31.5,29.4,30.08,NNW,342,0.0,0.0,92,0.00,,,0.00,0.00,VWS V14.01,2013-02-04 11:17:00,
2013-02-04 06:22:00,31.4,29.3,30.08,NNW,342,0.0,0.0,92,0.00,,,0.00,0.00,VWS V14.01,2013-02-04 11:22:00,
2013-02-04 06:27:00,31.0,29.0,30.08,NNW,342,0.0,0.0,92,0.00,,,0.00,0.00,VWS V14.01,2013-02-04 11:27:00,
2013-02-04 06:32:00,31.0,29.3,30.08,NNW,342,0.0,0.0,93,0.00,,,0.00,0.00,VWS V14.01,2013-02-04 11:32:00,
2013-02-04 06:37:00,31.0,29.3,30.09,NNW,342,0.0,0.0,93,0.00,,,0.00,0.00,VWS V14.01,2013-02-04 11:37:00,
2013-02-04 06:42:00,31.0,29.3,30.08,NNW,342,1.1,1.1,93,0.00,,,0.00,0.00,VWS V14.01,2013-02-04 11:42:00,
2013-02-04 06:47:00,31.0,29.2,30.08,NNW,342,0.0,0.0,93,0.00,,,0.00,0.00,VWS V14.01,2013-02-04 11:47:00,
2013-02-04 06:52:00,30.8,28.7,30.08,NNW,342,0.0,0.0,92,0.00,,,0.00,0.00,VWS V14.01,2013-02-04 11:52:00,
2013-02-04 06:57:00,30.5,28.4,30.09,NNW,342,0.0,0.0,92,0.00,,,0.00,0.00,VWS V14.01,2013-02-04 11:57:00,
2013-02-04 07:02:00,30.2,28.5,30.09,NNW,342,0.0,0.0,93,0.00,,,0.00,0.00,VWS V14.01,2013-02-04 12:02:00,
2013-02-04 07:07:00,30.1,28.4,30.10,NNW,342,0.0,0.0,93,0.00,,,0.00,0.00,VWS V14.01,2013-02-04 12:07:00,
2013-02-04 07:12:00,30.1,28.4,30.09,NNW,342,0.0,0.0,93,0.00,,,0.00,0.00,VWS V14.01,2013-02-04 12:12:00,
2013-02-04 07:17:00,30.2,28.5,30.10,NNW,342,0.0,0.0,93,0.00,,,0.00,5.00,VWS V14.01,2013-02-04 12:17:00,
2013-02-04 07:22:00,30.4,28.6,30.09,NNW,342,0.0,0.0,93,0.00,,,0.00,7.00,VWS V14.01,2013-02-04 12:22:00,
2013-02-04 07:27:00,30.2,28.5,30.10,NNW,342,0.0,0.0,93,0.00,,,0.00,9.00,VWS V14.01,2013-02-04 12:27:00,
2013-02-04 07:32:00,30.4,28.6,30.10,NNW,342,0.0,0.0,93,0.00,,,0.00,12.00,VWS V14.01,2013-02-04 12:32:00,
2013-02-04 07:37:00,30.5,28.8,30.10,NNW,342,0.0,0.0,93,0.00,,,0.00,19.00,VWS V14.01,2013-02-04 12:37:00,
2013-02-04 07:42:00,30.8,29.0,30.10,NNW,342,0.0,0.0,93,0.00,,,0.00,19.00,VWS V14.01,2013-02-04 12:42:00,
2013-02-04 07:47:00,30.9,29.1,30.11,NNW,342,0.0,0.0,93,0.00,,,0.00,16.00,VWS V14.01,2013-02-04 12:47:00,
2013-02-04 07:52:00,31.0,29.2,30.11,NNW,342,0.0,0.0,93,0.00,,,0.00,16.00,VWS V14.01,2013-02-04 12:52:00,
2013-02-04 07:57:00,31.1,29.4,30.11,NNW,342,0.0,0.0,93,0.00,,,0.00,39.00,VWS V14.01,2013-02-04 12:57:00,
2013-02-04 08:02:00,31.8,30.2,30.12,NNW,342,0.0,0.0,94,0.00,,,0.00,60.00,VWS V14.01,2013-02-04 13:02:00,
2013-02-04 08:07:00,32.7,31.1,30.12,NNW,342,0.0,0.0,94,0.00,,,0.00,56.00,VWS V14.01,2013-02-04 13:07:00,
2013-02-04 08:12:00,33.8,31.9,30.13,NNW,342,0.0,0.0,93,0.00,,,0.00,60.00,VWS V14.01,2013-02-04 13:12:00,
2013-02-04 08:17:00,35.0,32.9,30.14,NNW,342,0.0,0.0,92,0.00,,,0.00,58.00,VWS V14.01,2013-02-04 13:17:00,
2013-02-04 08:22:00,36.0,33.7,30.14,NNW,342,0.0,0.0,91,0.00,,,0.00,60.00,VWS V14.01,2013-02-04 13:22:00,
2013-02-04 08:27:00,37.0,34.3,30.14,NNW,342,0.0,0.0,90,0.00,,,0.00,63.00,VWS V14.01,2013-02-04 13:27:00,
2013-02-04 08:32:00,37.8,35.1,30.13,NNW,342,0.0,0.0,90,0.00,,,0.00,69.00,VWS V14.01,2013-02-04 13:32:00,
2013-02-04 08:37:00,38.0,35.1,30.13,NNW,342,0.0,0.0,89,0.00,,,0.00,51.00,VWS V14.01,2013-02-04 13:37:00,
2013-02-04 08:42:00,38.2,34.7,30.13,NNW,342,0.0,0.0,87,0.00,,,0.00,28.00,VWS V14.01,2013-02-04 13:42:00,
2013-02-04 08:47:00,38.3,34.8,30.13,NNW,342,0.0,0.0,87,0.00,,,0.00,46.00,VWS V14.01,2013-02-04 13:47:00,
2013-02-04 08:52:00,38.5,35.0,30.14,NNW,342,0.0,0.0,87,0.00,,,0.00,58.00,VWS V14.01,2013-02-04 13:52:00,
2013-02-04 08:57:00,39.8,35.0,30.14,NNW,342,0.0,0.0,83,0.00,,,0.00,54.00,VWS V14.01,2013-02-04 13:57:00,
2013-02-04 09:02:00,40.5,35.2,30.14,NNW,342,0.0,0.0,81,0.00,,,0.00,56.00,VWS V14.01,2013-02-04 14:02:00,
2013-02-04 09:07:00,41.5,34.8,30.13,NNW,348,3.3,3.3,77,0.00,,,0.00,97.00,VWS V14.01,2013-02-04 14:07:00,
2013-02-04 09:12:00,42.2,34.1,30.14,North,3,1.1,3.3,73,0.00,,,0.00,90.00,VWS V14.01,2013-02-04 14:12:00,
2013-02-04 09:17:00,43.0,34.6,30.13,NNE,12,0.0,0.0,72,0.00,,,0.00,100.00,VWS V14.01,2013-02-04 14:17:00,
2013-02-04 09:22:00,43.8,35.0,30.14,North,11,0.0,0.0,71,0.00,,,0.00,88.00,VWS V14.01,2013-02-04 14:22:00,
2013-02-04 09:27:00,44.5,35.3,30.14,North,11,0.0,1.1,70,0.00,,,0.00,160.00,VWS V14.01,2013-02-04 14:27:00,
2013-02-04 09:32:00,45.8,35.0,30.14,North,11,0.0,1.1,66,0.00,,,0.00,172.00,VWS V14.01,2013-02-04 14:32:00,
2013-02-04 09:37:00,46.7,33.9,30.14,NNE,16,0.0,2.2,61,0.00,,,0.00,183.00,VWS V14.01,2013-02-04 14:37:00,
2013-02-04 09:42:00,47.3,34.2,30.14,SSE,166,0.0,2.2,60,0.00,,,0.00,174.00,VWS V14.01,2013-02-04 14:42:00,
2013-02-04 09:47:00,47.7,33.6,30.14,North,5,1.1,2.2,58,0.00,,,0.00,185.00,VWS V14.01,2013-02-04 14:47:00,
2013-02-04 09:52:00,48.0,33.1,30.14,North,353,0.0,2.2,56,0.00,,,0.00,251.00,VWS V14.01,2013-02-04 14:52:00,
2013-02-04 09:57:00,48.0,33.1,30.14,SE,145,4.4,4.4,56,0.00,,,0.00,512.00,VWS V14.01,2013-02-04 14:57:00,
2013-02-04 10:02:00,49.3,34.3,30.14,North,353,0.0,2.2,56,0.00,,,0.00,482.00,VWS V14.01,2013-02-04 15:02:00,
2013-02-04 10:07:00,50.0,34.0,30.14,South,179,0.0,3.3,54,0.00,,,0.00,478.00,VWS V14.01,2013-02-04 15:07:00,
2013-02-04 10:12:00,50.2,32.8,30.14,NE,53,0.0,1.1,51,0.00,,,0.00,492.00,VWS V14.01,2013-02-04 15:12:00,
2013-02-04 10:17:00,51.2,33.2,30.14,SE,144,5.5,5.5,50,0.00,,,0.00,489.00,VWS V14.01,2013-02-04 15:17:00,
2013-02-04 10:22:00,50.5,32.5,30.14,NE,45,2.2,3.3,50,0.00,,,0.00,455.00,VWS V14.01,2013-02-04 15:22:00,
2013-02-04 10:27:00,50.2,31.2,30.14,NNE,19,2.2,2.2,48,0.00,,,0.00,499.00,VWS V14.01,2013-02-04 15:27:00,
2013-02-04 10:32:00,50.2,32.3,30.13,North,11,1.1,2.2,50,0.00,,,0.00,466.00,VWS V14.01,2013-02-04 15:32:00,
2013-02-04 10:37:00,51.2,32.2,30.13,SSE,154,2.2,2.2,48,0.00,,,0.00,427.00,VWS V14.01,2013-02-04 15:37:00,
2013-02-04 10:42:00,51.8,32.2,30.12,South,170,0.0,0.0,47,0.00,,,0.00,473.00,VWS V14.01,2013-02-04 15:42:00,
2013-02-04 10:47:00,52.0,31.8,30.13,NE,56,1.1,1.1,46,0.00,,,0.00,385.00,VWS V14.01,2013-02-04 15:47:00,
2013-02-04 10:52:00,51.8,30.6,30.13,SSE,152,2.2,3.3,44,0.00,,,0.00,424.00,VWS V14.01,2013-02-04 15:52:00,
2013-02-04 10:57:00,51.8,32.2,30.13,NNE,30,0.0,0.0,47,0.00,,,0.00,322.00,VWS V14.01,2013-02-04 15:57:00,
2013-02-04 11:02:00,52.3,31.6,30.13,South,174,0.0,0.0,45,0.00,,,0.00,387.00,VWS V14.01,2013-02-04 16:02:00,
2013-02-04 11:07:00,52.5,30.0,30.13,NNE,25,0.0,1.1,42,0.00,,,0.00,348.00,VWS V14.01,2013-02-04 16:07:00,
2013-02-04 11:12:00,52.8,33.6,30.13,SSE,160,4.4,4.4,48,0.00,,,0.00,308.00,VWS V14.01,2013-02-04 16:12:00,
2013-02-04 11:17:00,52.5,30.0,30.13,SSE,168,2.2,2.2,42,0.00,,,0.00,390.00,VWS V14.01,2013-02-04 16:17:00,
2013-02-04 11:22:00,53.0,30.5,30.12,SE,146,3.3,6.6,42,0.00,,,0.00,417.00,VWS V14.01,2013-02-04 16:22:00,
2013-02-04 11:27:00,52.7,29.6,30.12,NW,314,0.0,1.1,41,0.00,,,0.00,404.00,VWS V14.01,2013-02-04 16:27:00,
2013-02-04 11:32:00,53.3,32.0,30.11,SSE,156,4.4,4.4,44,0.00,,,0.00,399.00,VWS V14.01,2013-02-04 16:32:00,
2013-02-04 11:37:00,53.5,31.0,30.11,ESE,107,1.1,1.1,42,0.00,,,0.00,360.00,VWS V14.01,2013-02-04 16:37:00,
2013-02-04 11:42:00,53.7,31.7,30.11,SSE,155,4.4,4.4,43,0.00,,,0.00,380.00,VWS V14.01,2013-02-04 16:42:00,
2013-02-04 11:47:00,53.8,31.8,30.11,SSE,168,2.2,4.4,43,0.00,,,0.00,348.00,VWS V14.01,2013-02-04 16:47:00,
2013-02-04 11:52:00,53.5,31.6,30.11,SSE,168,0.0,0.0,43,0.00,,,0.00,325.00,VWS V14.01,2013-02-04 16:52:00,
2013-02-04 11:57:00,54.0,31.5,30.11,SSE,159,0.0,0.0,42,0.00,,,0.00,403.00,VWS V14.01,2013-02-04 16:57:00,
2013-02-04 12:02:00,54.2,32.2,30.11,SE,142,4.4,4.4,43,0.00,,,0.00,374.00,VWS V14.01,2013-02-04 17:02:00,
2013-02-04 12:07:00,54.0,31.5,30.11,WSW,256,1.1,1.1,42,0.00,,,0.00,246.00,VWS V14.01,2013-02-04 17:07:00,
2013-02-04 12:12:00,53.8,31.8,30.11,South,175,0.0,1.1,43,0.00,,,0.00,258.00,VWS V14.01,2013-02-04 17:12:00,
2013-02-04 12:17:00,53.7,31.7,30.11,SSE,156,3.3,3.3,43,0.00,,,0.00,272.00,VWS V14.01,2013-02-04 17:17:00,
2013-02-04 12:22:00,54.0,32.1,30.10,SSE,156,2.2,3.3,43,0.00,,,0.00,244.00,VWS V14.01,2013-02-04 17:22:00,
2013-02-04 12:27:00,53.8,31.8,30.10,SSE,165,1.1,2.2,43,0.00,,,0.00,287.00,VWS V14.01,2013-02-04 17:27:00,
2013-02-04 12:32:00,53.8,31.9,30.11,SSE,167,1.1,3.3,43,0.00,,,0.00,329.00,VWS V14.01,2013-02-04 17:32:00,
2013-02-04 12:37:00,54.0,32.6,30.10,SSE,166,0.0,0.0,44,0.00,,,0.00,318.00,VWS V14.01,2013-02-04 17:37:00,
2013-02-04 12:42:00,54.7,32.6,30.10,SSE,160,2.2,2.2,43,0.00,,,0.00,276.00,VWS V14.01,2013-02-04 17:42:00,
2013-02-04 12:47:00,54.5,31.9,30.09,SSE,162,0.0,3.3,42,0.00,,,0.00,260.00,VWS V14.01,2013-02-04 17:47:00,
2013-02-04 12:52:00,54.7,32.0,30.09,SSE,166,1.1,3.3,42,0.00,,,0.00,257.00,VWS V14.01,2013-02-04 17:52:00,
2013-02-04 12:57:00,54.3,31.8,30.09,South,190,3.3,3.3,42,0.00,,,0.00,253.00,VWS V14.01,2013-02-04 17:57:00,
2013-02-04 13:02:00,54.3,31.8,30.10,SSE,168,3.3,4.4,42,0.00,,,0.00,248.00,VWS V14.01,2013-02-04 18:02:00,
2013-02-04 13:07:00,54.2,32.2,30.09,SW,227,0.0,0.0,43,0.00,,,0.00,214.00,VWS V14.01,2013-02-04 18:07:00,
2013-02-04 13:12:00,54.2,32.8,30.09,East,91,1.1,1.1,44,0.00,,,0.00,276.00,VWS V14.01,2013-02-04 18:12:00,
2013-02-04 13:17:00,55.2,33.2,30.09,SSE,152,0.0,1.1,43,0.00,,,0.00,457.00,VWS V14.01,2013-02-04 18:17:00,
2013-02-04 13:22:00,56.7,34.4,30.09,NE,39,0.0,1.1,43,0.00,,,0.00,522.00,VWS V14.01,2013-02-04 18:22:00,
2013-02-04 13:27:00,56.2,31.0,30.09,WSW,238,3.3,3.3,38,0.00,,,0.00,487.00,VWS V14.01,2013-02-04 18:27:00,
2013-02-04 13:32:00,55.3,32.7,30.09,SW,233,0.0,0.0,42,0.00,,,0.00,369.00,VWS V14.01,2013-02-04 18:32:00,
2013-02-04 13:37:00,55.0,30.6,30.08,WNW,295,2.2,2.2,39,0.00,,,0.00,287.00,VWS V14.01,2013-02-04 18:37:00,
2013-02-04 13:42:00,54.8,30.9,30.09,WNW,294,1.1,1.1,40,0.00,,,0.00,410.00,VWS V14.01,2013-02-04 18:42:00,
2013-02-04 13:47:00,55.5,31.6,30.08,WSW,248,0.0,3.3,40,0.00,,,0.00,629.00,VWS V14.01,2013-02-04 18:47:00,
2013-02-04 13:52:00,55.5,30.9,30.08,NW,316,2.2,2.2,39,0.00,,,0.00,694.00,VWS V14.01,2013-02-04 18:52:00,
2013-02-04 13:57:00,56.3,31.7,30.07,SSW,193,1.1,1.1,39,0.00,,,0.00,315.00,VWS V14.01,2013-02-04 18:57:00,
2013-02-04 14:02:00,56.0,32.7,30.07,ENE,71,0.0,0.0,41,0.00,,,0.00,316.00,VWS V14.01,2013-02-04 19:02:00,
2013-02-04 14:07:00,56.8,34.0,30.06,NE,54,2.2,2.2,42,0.00,,,0.00,422.00,VWS V14.01,2013-02-04 19:07:00,
2013-02-04 14:12:00,56.5,31.9,30.06,NNE,16,1.1,2.2,39,0.00,,,0.00,387.00,VWS V14.01,2013-02-04 19:12:00,
2013-02-04 14:17:00,56.5,33.1,30.06,SSE,164,3.3,3.3,41,0.00,,,0.00,496.00,VWS V14.01,2013-02-04 19:17:00,
2013-02-04 14:22:00,57.7,32.9,30.07,South,188,2.2,3.3,39,0.00,,,0.00,301.00,VWS V14.01,2013-02-04 19:22:00,
2013-02-04 14:27:00,56.8,32.2,30.07,South,187,2.2,2.2,39,0.00,,,0.00,371.00,VWS V14.01,2013-02-04 19:27:00,
2013-02-04 14:32:00,57.0,32.9,30.07,South,169,0.0,0.0,40,0.00,,,0.00,376.00,VWS V14.01,2013-02-04 19:32:00,
2013-02-04 14:37:00,56.5,31.9,30.07,SSW,202,3.3,3.3,39,0.00,,,0.00,571.00,VWS V14.01,2013-02-04 19:37:00,
2013-02-04 14:42:00,57.2,33.8,30.07,NW,312,0.0,0.0,41,0.00,,,0.00,336.00,VWS V14.01,2013-02-04 19:42:00,
2013-02-04 14:47:00,57.2,31.9,30.06,SE,138,3.3,3.3,38,0.00,,,0.00,381.00,VWS V14.01,2013-02-04 19:47:00,
2013-02-04 14:52:00,57.8,31.8,30.06,SSE,162,0.0,2.2,37,0.00,,,0.00,399.00,VWS V14.01,2013-02-04 19:52:00,
2013-02-04 14:57:00,56.8,31.5,30.06,South,187,2.2,2.2,38,0.00,,,0.00,322.00,VWS V14.01,2013-02-04 19:57:00,
2013-02-04 15:02:00,57.2,32.5,30.06,NE,35,1.1,1.1,39,0.00,,,0.00,218.00,VWS V14.01,2013-02-04 20:02:00,
2013-02-04 15:07:00,57.5,33.3,30.07,SSE,167,6.6,6.6,40,0.00,,,0.00,239.00,VWS V14.01,2013-02-04 20:07:00,
2013-02-04 15:12:00,57.2,33.2,30.07,ESE,106,0.0,0.0,40,0.00,,,0.00,241.00,VWS V14.01,2013-02-04 20:12:00,
2013-02-04 15:17:00,57.0,31.7,30.08,SE,131,0.0,0.0,38,0.00,,,0.00,362.00,VWS V14.01,2013-02-04 20:17:00,
2013-02-04 15:22:00,57.0,30.4,30.08,SSE,168,2.2,3.3,36,0.00,,,0.00,178.00,VWS V14.01,2013-02-04 20:22:00,
2013-02-04 15:27:00,56.8,32.7,30.08,SSW,196,0.0,1.1,40,0.00,,,0.00,230.00,VWS V14.01,2013-02-04 20:27:00,
2013-02-04 15:32:00,56.5,31.9,30.08,WNW,285,0.0,0.0,39,0.00,,,0.00,193.00,VWS V14.01,2013-02-04 20:32:00,
2013-02-04 15:37:00,56.5,31.8,30.08,SE,137,1.1,1.1,39,0.00,,,0.00,162.00,VWS V14.01,2013-02-04 20:37:00,
2013-02-04 15:42:00,56.2,31.6,30.07,ESE,121,0.0,0.0,39,0.00,,,0.00,163.00,VWS V14.01,2013-02-04 20:42:00,
2013-02-04 15:47:00,56.2,32.2,30.07,South,173,1.1,2.2,40,0.00,,,0.00,148.00,VWS V14.01,2013-02-04 20:47:00,
2013-02-04 15:52:00,56.2,31.6,30.07,SE,143,0.0,0.0,39,0.00,,,0.00,151.00,VWS V14.01,2013-02-04 20:52:00,
2013-02-04 15:57:00,56.3,32.3,30.07,SSE,152,1.1,1.1,40,0.00,,,0.00,125.00,VWS V14.01,2013-02-04 20:57:00,
2013-02-04 16:02:00,56.2,32.8,30.07,South,183,0.0,0.0,41,0.00,,,0.00,104.00,VWS V14.01,2013-02-04 21:02:00,
2013-02-04 16:07:00,56.0,32.6,30.07,SE,144,0.0,0.0,41,0.00,,,0.00,132.00,VWS V14.01,2013-02-04 21:07:00,
2013-02-04 16:12:00,56.0,32.6,30.06,South,185,0.0,0.0,41,0.00,,,0.00,125.00,VWS V14.01,2013-02-04 21:12:00,
2013-02-04 16:17:00,55.8,33.1,30.06,South,183,0.0,0.0,42,0.00,,,0.00,125.00,VWS V14.01,2013-02-04 21:17:00,
2013-02-04 16:22:00,55.7,33.5,30.06,SE,132,0.0,0.0,43,0.00,,,0.00,123.00,VWS V14.01,2013-02-04 21:22:00,
2013-02-04 16:27:00,55.8,34.2,30.06,East,87,0.0,0.0,44,0.00,,,0.00,86.00,VWS V14.01,2013-02-04 21:27:00,
2013-02-04 16:32:00,55.5,33.3,30.06,SE,133,2.2,2.2,43,0.00,,,0.00,77.00,VWS V14.01,2013-02-04 21:32:00,
2013-02-04 16:37:00,55.2,34.2,30.06,SE,133,0.0,0.0,45,0.00,,,0.00,77.00,VWS V14.01,2013-02-04 21:37:00,
2013-02-04 16:42:00,55.0,34.1,30.07,SE,133,2.2,2.2,45,0.00,,,0.00,54.00,VWS V14.01,2013-02-04 21:42:00,
2013-02-04 16:47:00,55.0,34.6,30.07,SE,139,0.0,0.0,46,0.00,,,0.00,51.00,VWS V14.01,2013-02-04 21:47:00,
2013-02-04 16:52:00,54.8,34.4,30.07,SE,142,1.1,1.1,46,0.00,,,0.00,33.00,VWS V14.01,2013-02-04 21:52:00,
2013-02-04 16:57:00,54.7,34.8,30.07,SSE,153,0.0,0.0,47,0.00,,,0.00,37.00,VWS V14.01,2013-02-04 21:57:00,
2013-02-04 17:02:00,54.3,35.6,30.07,SSE,153,0.0,0.0,49,0.00,,,0.00,30.00,VWS V14.01,2013-02-04 22:02:00,
2013-02-04 17:07:00,54.2,34.9,30.07,SSE,153,0.0,0.0,48,0.00,,,0.00,28.00,VWS V14.01,2013-02-04 22:07:00,
2013-02-04 17:12:00,53.8,35.2,30.07,SE,140,1.1,2.2,49,0.00,,,0.00,21.00,VWS V14.01,2013-02-04 22:12:00,
2013-02-04 17:17:00,53.7,36.0,30.07,SE,140,0.0,0.0,51,0.00,,,0.00,16.00,VWS V14.01,2013-02-04 22:17:00,
2013-02-04 17:22:00,53.7,35.5,30.07,SE,140,0.0,0.0,50,0.00,,,0.00,12.00,VWS V14.01,2013-02-04 22:22:00,
2013-02-04 17:27:00,53.5,35.4,30.06,SE,140,1.1,1.1,50,0.00,,,0.00,9.00,VWS V14.01,2013-02-04 22:27:00,
2013-02-04 17:32:00,53.2,36.1,30.06,SE,139,0.0,0.0,52,0.00,,,0.00,5.00,VWS V14.01,2013-02-04 22:32:00,
2013-02-04 17:37:00,53.0,35.3,30.06,SE,146,0.0,0.0,51,0.00,,,0.00,0.00,VWS V14.01,2013-02-04 22:37:00,
2013-02-04 17:42:00,52.7,36.0,30.06,East,89,0.0,0.0,53,0.00,,,0.00,0.00,VWS V14.01,2013-02-04 22:42:00,
2013-02-04 17:47:00,52.3,36.2,30.06,East,96,0.0,0.0,54,0.00,,,0.00,0.00,VWS V14.01,2013-02-04 22:47:00,
2013-02-04 17:52:00,52.2,36.6,30.06,East,96,0.0,0.0,55,0.00,,,0.00,0.00,VWS V14.01,2013-02-04 22:52:00,
2013-02-04 17:57:00,52.0,36.8,30.06,East,99,0.0,0.0,56,0.00,,,0.00,0.00,VWS V14.01,2013-02-04 22:57:00,
2013-02-04 18:02:00,51.8,36.6,30.06,SSE,162,0.0,0.0,56,0.00,,,0.00,0.00,VWS V14.01,2013-02-04 23:02:00,
2013-02-04 18:07:00,51.5,37.3,30.06,SSE,162,0.0,0.0,58,0.00,,,0.00,0.00,VWS V14.01,2013-02-04 23:07:00,
2013-02-04 18:12:00,51.3,37.5,30.06,SSE,162,0.0,0.0,59,0.00,,,0.00,0.00,VWS V14.01,2013-02-04 23:12:00,
2013-02-04 18:17:00,51.2,37.3,30.06,SSE,162,0.0,0.0,59,0.00,,,0.00,0.00,VWS V14.01,2013-02-04 23:17:00,
2013-02-04 18:22:00,51.2,37.8,30.06,SSE,162,0.0,0.0,60,0.00,,,0.00,0.00,VWS V14.01,2013-02-04 23:22:00,
2013-02-04 18:27:00,51.5,38.0,30.06,SSE,162,0.0,0.0,60,0.00,,,0.00,0.00,VWS V14.01,2013-02-04 23:27:00,
2013-02-04 18:32:00,51.3,38.4,30.06,SSE,162,0.0,0.0,61,0.00,,,0.00,0.00,VWS V14.01,2013-02-04 23:32:00,
2013-02-04 18:37:00,51.3,38.8,30.06,SSE,162,1.1,1.1,62,0.00,,,0.00,0.00,VWS V14.01,2013-02-04 23:37:00,
2013-02-04 18:42:00,51.5,39.3,30.06,SSE,162,0.0,0.0,63,0.00,,,0.00,0.00,VWS V14.01,2013-02-04 23:42:00,
2013-02-04 18:47:00,51.5,39.8,30.06,SSE,164,0.0,0.0,64,0.00,,,0.00,0.00,VWS V14.01,2013-02-04 23:47:00,
2013-02-04 18:52:00,51.5,39.8,30.06,SSE,164,0.0,0.0,64,0.00,,,0.00,0.00,VWS V14.01,2013-02-04 23:52:00,
2013-02-04 18:57:00,51.3,40.0,30.06,SSE,164,0.0,0.0,65,0.00,,,0.00,0.00,VWS V14.01,2013-02-04 23:57:00,
2013-02-04 19:02:00,51.2,40.2,30.06,SSE,164,0.0,0.0,66,0.00,,,0.00,0.00,VWS V14.01,2013-02-05 00:02:00,
2013-02-04 19:07:00,50.8,40.7,30.06,SSE,164,0.0,0.0,68,0.00,,,0.00,0.00,VWS V14.01,2013-02-05 00:07:00,
2013-02-04 19:12:00,50.7,40.9,30.06,SSE,164,0.0,0.0,69,0.00,,,0.00,0.00,VWS V14.01,2013-02-05 00:12:00,
2013-02-04 19:17:00,50.8,40.7,30.06,SW,220,0.0,0.0,68,0.00,,,0.00,0.00,VWS V14.01,2013-02-05 00:17:00,
2013-02-04 19:22:00,51.0,40.8,30.06,South,175,4.4,4.4,68,0.00,,,0.00,0.00,VWS V14.01,2013-02-05 00:22:00,
2013-02-04 19:27:00,51.0,40.9,30.07,SSW,208,2.2,2.2,68,0.00,,,0.00,0.00,VWS V14.01,2013-02-05 00:27:00,
2013-02-04 19:32:00,51.0,40.9,30.07,SSW,210,1.1,1.1,68,0.00,,,0.00,0.00,VWS V14.01,2013-02-05 00:32:00,
2013-02-04 19:37:00,51.0,40.8,30.07,South,185,0.0,0.0,68,0.00,,,0.00,0.00,VWS V14.01,2013-02-05 00:37:00,
2013-02-04 19:42:00,50.8,40.6,30.07,SSW,206,1.1,2.2,68,0.00,,,0.00,0.00,VWS V14.01,2013-02-05 00:42:00,
2013-02-04 19:47:00,50.5,40.8,30.08,South,180,3.3,4.4,69,0.00,,,0.00,0.00,VWS V14.01,2013-02-05 00:47:00,
2013-02-04 19:52:00,50.3,40.6,30.07,South,191,1.1,1.1,69,0.00,,,0.00,0.00,VWS V14.01,2013-02-05 00:52:00,
2013-02-04 19:57:00,49.8,40.5,30.07,South,191,1.1,1.1,70,0.00,,,0.00,0.00,VWS V14.01,2013-02-05 00:57:00,
2013-02-04 20:02:00,49.3,40.4,30.07,South,191,0.0,0.0,71,0.00,,,0.00,0.00,VWS V14.01,2013-02-05 01:02:00,
2013-02-04 20:07:00,48.5,40.3,30.07,South,191,0.0,0.0,73,0.00,,,0.00,0.00,VWS V14.01,2013-02-05 01:07:00,
2013-02-04 20:12:00,47.8,40.0,30.06,South,191,0.0,0.0,74,0.00,,,0.00,0.00,VWS V14.01,2013-02-05 01:12:00,
2013-02-04 20:17:00,47.3,40.2,30.06,South,191,0.0,0.0,76,0.00,,,0.00,0.00,VWS V14.01,2013-02-05 01:17:00,
2013-02-04 20:22:00,46.3,39.5,30.06,South,191,0.0,0.0,77,0.00,,,0.00,0.00,VWS V14.01,2013-02-05 01:22:00,
2013-02-04 20:27:00,45.5,39.4,30.07,South,191,0.0,0.0,79,0.00,,,0.00,0.00,VWS V14.01,2013-02-05 01:27:00,
2013-02-04 20:32:00,44.8,39.0,30.07,South,191,0.0,0.0,80,0.00,,,0.00,0.00,VWS V14.01,2013-02-05 01:32:00,
2013-02-04 20:37:00,44.2,39.1,30.07,South,190,0.0,0.0,82,0.00,,,0.00,0.00,VWS V14.01,2013-02-05 01:37:00,
2013-02-04 20:42:00,44.3,39.5,30.07,South,191,0.0,0.0,83,0.00,,,0.00,0.00,VWS V14.01,2013-02-05 01:42:00,
2013-02-04 20:47:00,44.8,39.7,30.07,South,190,0.0,0.0,82,0.00,,,0.00,0.00,VWS V14.01,2013-02-05 01:47:00,
2013-02-04 20:52:00,44.8,39.6,30.07,South,191,0.0,0.0,82,0.00,,,0.00,0.00,VWS V14.01,2013-02-05 01:52:00,
2013-02-04 20:57:00,44.5,39.6,30.07,South,191,0.0,0.0,83,0.00,,,0.00,0.00,VWS V14.01,2013-02-05 01:57:00,
2013-02-04 21:02:00,44.3,39.5,30.06,South,191,0.0,0.0,83,0.00,,,0.00,0.00,VWS V14.01,2013-02-05 02:02:00,
2013-02-04 21:07:00,44.3,39.5,30.06,South,191,0.0,0.0,83,0.00,,,0.00,0.00,VWS V14.01,2013-02-05 02:07:00,
2013-02-04 21:12:00,44.0,39.1,30.06,South,191,0.0,0.0,83,0.00,,,0.00,0.00,VWS V14.01,2013-02-05 02:12:00,
2013-02-04 21:17:00,43.8,39.2,30.05,South,191,0.0,0.0,84,0.00,,,0.00,0.00,VWS V14.01,2013-02-05 02:17:00,
2013-02-04 21:22:00,43.3,38.8,30.05,South,191,0.0,0.0,84,0.00,,,0.00,0.00,VWS V14.01,2013-02-05 02:22:00,
2013-02-04 21:27:00,42.5,38.4,30.06,South,190,0.0,0.0,85,0.00,,,0.00,0.00,VWS V14.01,2013-02-05 02:27:00,
2013-02-04 21:32:00,42.2,38.3,30.07,South,190,0.0,0.0,86,0.00,,,0.00,0.00,VWS V14.01,2013-02-05 02:32:00,
2013-02-04 21:37:00,42.0,38.5,30.07,South,190,0.0,0.0,87,0.00,,,0.00,0.00,VWS V14.01,2013-02-05 02:37:00,
2013-02-04 21:42:00,42.0,38.5,30.08,South,190,0.0,0.0,87,0.00,,,0.00,0.00,VWS V14.01,2013-02-05 02:42:00,
2013-02-04 21:47:00,42.2,38.6,30.08,South,191,0.0,0.0,87,0.00,,,0.00,0.00,VWS V14.01,2013-02-05 02:47:00,
2013-02-04 21:52:00,42.3,39.1,30.07,South,190,0.0,0.0,88,0.00,,,0.00,0.00,VWS V14.01,2013-02-05 02:52:00,
2013-02-04 21:57:00,42.8,39.2,30.07,South,191,0.0,0.0,87,0.00,,,0.00,0.00,VWS V14.01,2013-02-05 02:57:00,
2013-02-04 22:02:00,42.8,38.9,30.07,South,191,0.0,0.0,86,0.00,,,0.00,0.00,VWS V14.01,2013-02-05 03:02:00,
2013-02-04 22:07:00,42.7,39.1,30.07,South,191,0.0,0.0,87,0.00,,,0.00,0.00,VWS V14.01,2013-02-05 03:07:00,
2013-02-04 22:12:00,42.5,38.9,30.07,South,190,0.0,0.0,87,0.00,,,0.00,0.00,VWS V14.01,2013-02-05 03:12:00,
2013-02-04 22:17:00,42.2,38.7,30.08,South,191,0.0,0.0,87,0.00,,,0.00,0.00,VWS V14.01,2013-02-05 03:17:00,
2013-02-04 22:22:00,42.2,39.0,30.07,South,191,0.0,0.0,88,0.00,,,0.00,0.00,VWS V14.01,2013-02-05 03:22:00,
2013-02-04 22:27:00,42.5,39.2,30.07,South,190,0.0,0.0,88,0.00,,,0.00,0.00,VWS V14.01,2013-02-05 03:27:00,
2013-02-04 22:32:00,42.3,38.8,30.07,South,190,0.0,0.0,87,0.00,,,0.00,0.00,VWS V14.01,2013-02-05 03:32:00,
2013-02-04 22:37:00,42.0,38.8,30.08,South,191,0.0,0.0,88,0.00,,,0.00,0.00,VWS V14.01,2013-02-05 03:37:00,
2013-02-04 22:42:00,42.0,39.0,30.08,South,190,0.0,0.0,89,0.00,,,0.00,0.00,VWS V14.01,2013-02-05 03:42:00,
2013-02-04 22:47:00,42.0,39.0,30.08,South,191,0.0,0.0,89,0.00,,,0.00,0.00,VWS V14.01,2013-02-05 03:47:00,
2013-02-04 22:52:00,42.0,39.0,30.08,South,190,0.0,0.0,89,0.00,,,0.00,0.00,VWS V14.01,2013-02-05 03:52:00,
2013-02-04 22:57:00,42.0,39.0,30.08,South,190,0.0,0.0,89,0.00,,,0.00,0.00,VWS V14.01,2013-02-05 03:57:00,
2013-02-04 23:02:00,41.8,38.8,30.08,South,191,0.0,0.0,89,0.00,,,0.00,0.00,VWS V14.01,2013-02-05 04:02:00,
2013-02-04 23:07:00,41.8,39.1,30.07,South,190,0.0,0.0,90,0.00,,,0.00,0.00,VWS V14.01,2013-02-05 04:07:00,
2013-02-04 23:12:00,42.0,39.0,30.07,South,190,0.0,0.0,89,0.00,,,0.00,0.00,VWS V14.01,2013-02-05 04:12:00,
2013-02-04 23:17:00,42.2,39.2,30.08,South,190,0.0,0.0,89,0.00,,,0.00,0.00,VWS V14.01,2013-02-05 04:17:00,
2013-02-04 23:22:00,42.2,39.2,30.07,South,191,0.0,0.0,89,0.00,,,0.00,0.00,VWS V14.01,2013-02-05 04:22:00,
2013-02-04 23:27:00,42.3,39.3,30.07,South,191,0.0,0.0,89,0.00,,,0.00,0.00,VWS V14.01,2013-02-05 04:27:00,
2013-02-04 23:32:00,42.5,39.4,30.07,South,191,0.0,0.0,89,0.00,,,0.00,0.00,VWS V14.01,2013-02-05 04:32:00,
2013-02-04 23:37:00,42.5,39.5,30.06,South,190,0.0,0.0,89,0.00,,,0.00,0.00,VWS V14.01,2013-02-05 04:37:00,
2013-02-04 23:42:00,42.7,39.3,30.06,South,191,0.0,0.0,88,0.00,,,0.00,0.00,VWS V14.01,2013-02-05 04:42:00,
2013-02-04 23:47:00,42.5,39.4,30.06,South,190,0.0,0.0,89,0.00,,,0.00,0.00,VWS V14.01,2013-02-05 04:47:00,
2013-02-04 23:52:00,42.2,39.2,30.06,South,190,0.0,0.0,89,0.00,,,0.00,0.00,VWS V14.01,2013-02-05 04:52:00,
2013-02-04 23:57:00,41.8,38.8,30.06,South,190,0.0,0.0,89,0.00,,,0.00,0.00,VWS V14.01,2013-02-05 04:57:00,